Stündliche Wetter Dziadowice

Heute, 14 Juni, Montag

Zeit Temperatur Niederschläge Wind Luftdruck Luftfeuchtigkeit
00:00 +9°C° 0 mm 3 m/S 753 mmHg 87%
01:00 +8°C° 0 mm 3 m/S 753 mmHg 90%
02:00 +8°C° 0 mm 3 m/S 753 mmHg 91%
03:00 +8°C° 0 mm 3 m/S 753 mmHg 92%
04:00 +7°C° 0 mm 3 m/S 753 mmHg 93%
05:00 +9°C° 0 mm 3 m/S 753 mmHg 87%
06:00 +11°C° 0 mm 3 m/S 753 mmHg 82%
07:00 +13°C° 0 mm 3 m/S 753 mmHg 76%
08:00 +14°C° 0 mm 3 m/S 753 mmHg 70%
09:00 +17°C° 0 mm 3 m/S 753 mmHg 65%
10:00 +18°C° 0 mm 3 m/S 753 mmHg 59%
11:00 +19°C° 0 mm 3 m/S 753 mmHg 57%
12:00 +20°C° 0 mm 3 m/S 752 mmHg 55%
13:00 +21°C° 0 mm 3 m/S 752 mmHg 52%
14:00 +21°C° 0 mm 2 m/S 752 mmHg 52%
15:00 +21°C° 0 mm 2 m/S 752 mmHg 52%
16:00 +21°C° 0 mm 2 m/S 751 mmHg 52%
17:00 +20°C° 0 mm 2 m/S 751 mmHg 58%
18:00 +20°C° 0 mm 1 m/S 751 mmHg 64%
19:00 +19°C° 0 mm 1 m/S 751 mmHg 70%
20:00 +18°C° 0 mm 1 m/S 751 mmHg 72%
21:00 +16°C° 0 mm 2 m/S 751 mmHg 73%
22:00 +15°C° 0 mm 2 m/S 751 mmHg 75%
23:00 +14°C° 0 mm 2 m/S 750 mmHg 77%

Morgen, 15 Juni, Dienstag

Zeit Temperatur Niederschläge Wind Luftdruck Luftfeuchtigkeit
00:00 +14°C° 0 mm 2 m/S 750 mmHg 78%
01:00 +12°C° 0 mm 3 m/S 750 mmHg 80%
02:00 +12°C° 0 mm 3 m/S 750 mmHg 80%
03:00 +12°C° 0 mm 3 m/S 750 mmHg 80%
04:00 +12°C° 0 mm 3 m/S 750 mmHg 81%
05:00 +13°C° 0 mm 3 m/S 750 mmHg 77%
06:00 +16°C° 0 mm 3 m/S 750 mmHg 73%
07:00 +17°C° 0 mm 3 m/S 750 mmHg 70%
08:00 +19°C° 0 mm 3 m/S 750 mmHg 66%
09:00 +20°C° 0 mm 3 m/S 750 mmHg 63%
10:00 +21°C° 0 mm 3 m/S 750 mmHg 59%
11:00 +22°C° 0 mm 3 m/S 750 mmHg 58%
12:00 +24°C° 0 mm 2 m/S 750 mmHg 57%
13:00 +25°C° 0 mm 2 m/S 749 mmHg 56%
14:00 +24°C° 0 mm 3 m/S 749 mmHg 57%
15:00 +24°C° 0 mm 3 m/S 749 mmHg 59%
16:00 +24°C° 0 mm 3 m/S 749 mmHg 60%
17:00 +22°C° 0.3 mm 3 m/S 749 mmHg 68%
18:00 +20°C° 0.3 mm 2 m/S 749 mmHg 77%
19:00 +19°C° 0.3 mm 2 m/S 749 mmHg 85%
20:00 +18°C° 0 mm 2 m/S 749 mmHg 88%
21:00 +17°C° 0 mm 2 m/S 750 mmHg 90%
22:00 +16°C° 0 mm 2 m/S 750 mmHg 93%
23:00 +16°C° 0 mm 2 m/S 750 mmHg 93%

übermorgen, 16 Juni, Mittwoch

Zeit Temperatur Niederschläge Wind Luftdruck Luftfeuchtigkeit
00:00 +15°C° 0 mm 2 m/S 750 mmHg 94%
01:00 +14°C° 0 mm 2 m/S 750 mmHg 95%
02:00 +14°C° 0 mm 2 m/S 750 mmHg 95%
03:00 +14°C° 0 mm 2 m/S 751 mmHg 95%
04:00 +14°C° 0 mm 2 m/S 751 mmHg 96%
05:00 +13°C° 0 mm 3 m/S 751 mmHg 89%
06:00 +14°C° 0 mm 3 m/S 751 mmHg 82%
07:00 +14°C° 0 mm 3 m/S 751 mmHg 75%
08:00 +17°C° 0 mm 3 m/S 751 mmHg 71%
09:00 +18°C° 0 mm 3 m/S 752 mmHg 66%
10:00 +20°C° 0 mm 2 m/S 752 mmHg 61%
11:00 +21°C° 0 mm 2 m/S 752 mmHg 58%
12:00 +23°C° 0 mm 2 m/S 752 mmHg 55%
13:00 +23°C° 0 mm 2 m/S 751 mmHg 52%
14:00 +24°C° 0 mm 2 m/S 751 mmHg 51%
15:00 +24°C° 0 mm 3 m/S 751 mmHg 50%
16:00 +24°C° 0 mm 3 m/S 751 mmHg 49%
17:00 +22°C° 0 mm 3 m/S 751 mmHg 56%
18:00 +21°C° 0 mm 3 m/S 751 mmHg 63%
19:00 +19°C° 0 mm 3 m/S 751 mmHg 69%
20:00 +18°C° 0 mm 3 m/S 751 mmHg 69%
21:00 +17°C° 0 mm 3 m/S 751 mmHg 69%
22:00 +14°C° 0 mm 3 m/S 751 mmHg 69%
23:00 +14°C° 0 mm 3 m/S 751 mmHg 70%

17 Juni, Donnerstag

Zeit Temperatur Niederschläge Wind Luftdruck Luftfeuchtigkeit
00:00 +13°C° 0 mm 3 m/S 751 mmHg 72%
01:00 +13°C° 0 mm 3 m/S 751 mmHg 74%
02:00 +12°C° 0 mm 3 m/S 751 mmHg 75%
03:00 +12°C° 0 mm 3 m/S 751 mmHg 76%
04:00 +12°C° 0 mm 3 m/S 751 mmHg 77%
05:00 +14°C° 0 mm 3 m/S 751 mmHg 73%
06:00 +15°C° 0 mm 4 m/S 752 mmHg 69%
07:00 +18°C° 0 mm 4 m/S 752 mmHg 66%
08:00 +19°C° 0 mm 4 m/S 752 mmHg 60%
09:00 +21°C° 0 mm 4 m/S 752 mmHg 55%
10:00 +22°C° 0 mm 4 m/S 752 mmHg 49%
11:00 +23°C° 0 mm 4 m/S 752 mmHg 47%
12:00 +25°C° 0 mm 5 m/S 751 mmHg 45%
13:00 +26°C° 0 mm 5 m/S 751 mmHg 42%
14:00 +26°C° 0 mm 5 m/S 751 mmHg 43%
15:00 +26°C° 0 mm 4 m/S 751 mmHg 44%
16:00 +26°C° 0 mm 4 m/S 751 mmHg 45%
17:00 +25°C° 0 mm 4 m/S 750 mmHg 53%
18:00 +22°C° 0 mm 4 m/S 750 mmHg 61%
19:00 +21°C° 0 mm 3 m/S 750 mmHg 69%
20:00 +19°C° 0 mm 3 m/S 750 mmHg 71%
21:00 +18°C° 0 mm 3 m/S 750 mmHg 73%
22:00 +17°C° 0 mm 3 m/S 751 mmHg 74%
23:00 +16°C° 0 mm 3 m/S 750 mmHg 78%

18 Juni, Freitag

Zeit Temperatur Niederschläge Wind Luftdruck Luftfeuchtigkeit
00:00 +16°C° 0 mm 3 m/S 750 mmHg 81%
01:00 +16°C° 0 mm 3 m/S 750 mmHg 85%
02:00 +16°C° 0 mm 3 m/S 750 mmHg 87%
03:00 +14°C° 0 mm 3 m/S 750 mmHg 89%
04:00 +14°C° 0 mm 3 m/S 750 mmHg 92%
05:00 +17°C° 0 mm 4 m/S 750 mmHg 86%
06:00 +19°C° 0 mm 4 m/S 750 mmHg 80%
07:00 +21°C° 0 mm 5 m/S 750 mmHg 74%
08:00 +23°C° 0 mm 5 m/S 750 mmHg 69%
09:00 +26°C° 0 mm 5 m/S 750 mmHg 64%
10:00 +27°C° 0 mm 6 m/S 750 mmHg 59%
11:00 +28°C° 0 mm 6 m/S 750 mmHg 56%
12:00 +29°C° 0 mm 5 m/S 750 mmHg 54%
13:00 +30°C° 0 mm 5 m/S 749 mmHg 51%
14:00 +30°C° 0 mm 5 m/S 749 mmHg 51%
15:00 +30°C° 0 mm 5 m/S 749 mmHg 52%
16:00 +30°C° 0 mm 5 m/S 749 mmHg 52%
17:00 +28°C° 0 mm 4 m/S 749 mmHg 58%
18:00 +27°C° 0 mm 4 m/S 749 mmHg 65%
19:00 +25°C° 0 mm 4 m/S 749 mmHg 71%
20:00 +23°C° 0 mm 4 m/S 749 mmHg 75%
21:00 +22°C° 0 mm 4 m/S 750 mmHg 78%
22:00 +21°C° 0 mm 4 m/S 750 mmHg 82%
23:00 +21°C° 0 mm 3 m/S 750 mmHg 85%

19 Juni, Samstag

Zeit Temperatur Niederschläge Wind Luftdruck Luftfeuchtigkeit
00:00 +20°C° 0 mm 3 m/S 750 mmHg 88%
01:00 +19°C° 0 mm 3 m/S 750 mmHg 91%
02:00 +19°C° 0 mm 3 m/S 750 mmHg 92%
03:00 +19°C° 0 mm 3 m/S 750 mmHg 92%
04:00 +18°C° 0 mm 3 m/S 750 mmHg 93%
05:00 +20°C° 0 mm 4 m/S 750 mmHg 86%
06:00 +21°C° 0 mm 4 m/S 751 mmHg 79%
07:00 +23°C° 0 mm 5 m/S 751 mmHg 72%
08:00 +25°C° 0 mm 5 m/S 751 mmHg 66%
09:00 +26°C° 0 mm 5 m/S 751 mmHg 60%
10:00 +27°C° 0 mm 5 m/S 751 mmHg 53%
11:00 +28°C° 0 mm 5 m/S 751 mmHg 52%
12:00 +29°C° 0 mm 5 m/S 751 mmHg 51%
13:00 +29°C° 0 mm 5 m/S 750 mmHg 49%
14:00 +29°C° 0 mm 5 m/S 750 mmHg 52%
15:00 +29°C° 0 mm 5 m/S 750 mmHg 56%
16:00 +28°C° 0 mm 6 m/S 750 mmHg 59%
17:00 +27°C° 0 mm 5 m/S 750 mmHg 63%
18:00 +26°C° 0 mm 4 m/S 750 mmHg 68%
19:00 +25°C° 0 mm 4 m/S 750 mmHg 72%
20:00 +23°C° 0 mm 4 m/S 750 mmHg 75%
21:00 +22°C° 0 mm 5 m/S 750 mmHg 79%
22:00 +21°C° 0 mm 5 m/S 750 mmHg 82%
23:00 +20°C° 0 mm 4 m/S 750 mmHg 85%
Mehr zeigen

Wir brauchen deine Erlaubnis

Meteoprog und unser Service Anbieter werden persönliche Daten aufbewahren, so wie Cookies, Geräte Bezeichnung oder ähnliche Technologien von deinem Gerät und Prozess, so wie Persönliche Daten Inhalte und Werbungen, genauso wie social Media und den Verkehr zu analysieren.

  • Aufbewahrung und/oder Zugang zu deiner Geräte Informationen.

    Cookies, Geräte Bezeichnung oder andere Informationen, können aufbewahrt oder Zugang zu deinem Gerät erhalten, für den Grund, der oben angegeben wird.

  • Personalisierte Werbung und Inhalte, Messungen, Einblick in das Publikum und Produkt Entwicklung.

    Werbungen und Inhalte können personalisiert werden, basierend auf ein Profil. Mehr Daten können besser personalisierte Werbungen und Inhalte hinzufügen. Werbung und Inhalte können gezeigt und gemessen werden. Einblicke über das Publikum, welche die Werbung gesehen haben und den Inhalt, können abgeleitet werden. So wie Daten können genutzt werden, um es zu verbessern oder die Benutzer Erfahrung zu verbessern das System und die Software.

Wenn du “Ich stimme zu” klickst, erlaubst du uns, die Cookies zu benutzen die Geräte Bezeichnung, den Web oder ähnliche Technologien zu benutzen. Deine Settings, können in deinem Gerät bei deinem Browser geändert werden.

Für den bestimmten Zweck, berechtigten Interessen beruhen darauf, mehr als auf den Inhalt. Du kannst mehr darüber in unseren Privaten und Cookie Politik lesen.